Date String (YYYY-MM-DD hh:mm:ss) UTC,Instrument flags,Ambient pressure (hPa),Sample flow (lpm),Bypass flow (lpm),Sample temperature (°C),Ambient temperature (°C),ASC tube jacket temperature (°C),LED temperature (°C),Box temperature (°C),Sample RH (%),Span deviation,Mass concentration (μg/m³),Mass concentration (μg/m³),Mass concentration (μg/m³)
DateTimeUTC,F1_M11,P_M11,Q1_M11,Q2_M11,T1_M11,T2_M11,T3_M11,T4_M11,T5_M11,U1_M11,ZSPAN_M11,X2_M11,X0_M11,X1_M11
2022-01-24 15:00:00,,0822.9,5.00,0.00,22.9,22.3,00.0,31.7,24.7,09.7,0000.0,0003.47,0004.36,0003.30
2022-01-24 15:01:00,,0822.9,4.99,0.00,22.9,22.3,00.0,31.7,24.7,09.7,0000.0,0003.54,0004.51,0003.37
2022-01-24 15:02:00,,0822.9,4.99,0.00,22.9,22.3,00.0,31.7,24.7,09.7,0000.0,0003.61,0004.69,0003.42
2022-01-24 15:03:00,,0822.9,5.00,0.00,22.9,22.3,00.0,31.8,24.7,09.8,0000.0,0003.63,0005.09,0003.43
2022-01-24 15:04:00,,0823.0,5.00,0.00,22.9,22.3,00.0,31.8,24.7,09.8,0000.0,0003.70,0005.38,0003.49
2022-01-24 15:05:00,,0823.0,5.01,0.00,22.9,22.3,00.0,31.8,24.7,09.9,0000.0,0003.78,0005.51,0003.57
2022-01-24 15:06:00,,0823.0,4.98,0.00,22.9,22.3,00.0,31.8,24.6,09.9,0000.0,0003.84,0005.66,0003.63
2022-01-24 15:07:00,,0822.9,5.01,0.00,22.9,22.3,00.0,31.8,24.7,09.7,0000.0,0003.88,0007.05,0003.64
2022-01-24 15:08:00,,0822.9,5.00,0.00,22.9,22.3,00.0,31.8,24.7,09.7,0000.0,0003.90,0008.10,0003.64
2022-01-24 15:09:00,,0822.9,4.99,0.00,22.9,22.3,00.0,31.8,24.7,09.9,0000.0,0003.91,0008.11,0003.65
2022-01-24 15:10:00,,0823.0,5.00,0.00,22.9,22.3,00.0,31.8,24.6,10.1,0000.0,0003.89,0008.11,0003.61
2022-01-24 15:11:00,,0823.0,4.99,0.00,22.9,22.2,00.0,31.8,24.6,10.1,0000.0,0003.82,0008.09,0003.54
2022-01-24 15:12:00,,0823.0,5.00,0.00,22.9,22.2,00.0,31.8,24.6,10.1,0000.0,0003.74,0008.03,0003.45
2022-01-24 15:13:00,,0823.0,5.00,0.00,22.9,22.2,00.0,31.8,24.6,09.9,0000.0,0003.65,0007.93,0003.34
2022-01-24 15:14:00,,0823.1,5.02,0.00,22.9,22.2,00.0,31.8,24.6,10.0,0000.0,0003.52,0007.63,0003.25
2022-01-24 15:15:00,,0823.0,5.00,0.00,22.9,22.2,00.0,31.8,24.6,10.2,0000.0,0003.41,0007.43,0003.14
2022-01-24 15:16:00,,0823.1,4.99,0.00,22.9,22.2,00.0,31.8,24.6,10.0,0000.0,0003.39,0007.40,0003.12
2022-01-24 15:17:00,,0823.0,5.00,0.00,22.9,22.2,00.0,31.8,24.6,09.9,0000.0,0003.38,0007.38,0003.11
2022-01-24 15:18:00,,0823.1,4.99,0.00,22.9,22.2,00.0,31.8,24.6,10.0,0000.0,0003.34,0005.58,0003.08
2022-01-24 15:19:00,,0823.1,5.00,0.00,22.9,22.1,00.0,31.8,24.6,09.9,0000.0,0003.30,0004.44,0003.03
2022-01-24 15:20:00,,0823.0,5.01,0.00,22.9,22.1,00.0,31.8,24.6,09.8,0000.0,0003.27,0004.36,0003.00
2022-01-24 15:21:00,,0823.1,5.01,0.00,22.9,22.1,00.0,31.8,24.6,09.8,0000.0,0003.29,0004.44,0003.01
2022-01-24 15:22:00,,0823.1,4.99,0.00,22.9,22.1,00.0,31.8,24.6,09.8,0000.0,0003.30,0004.39,0003.02
2022-01-24 15:23:00,,0823.1,5.00,0.00,22.9,22.1,00.0,31.8,24.5,09.8,0000.0,0003.31,0004.61,0003.04
2022-01-24 15:24:00,,0823.1,5.01,0.00,22.9,22.1,00.0,31.8,24.6,09.9,0000.0,0003.33,0005.09,0003.08
2022-01-24 15:25:00,,0823.1,5.01,0.00,22.9,22.1,00.0,31.8,24.6,09.8,0000.0,0003.38,0005.39,0003.10
2022-01-24 15:26:00,,0823.1,4.99,0.00,22.9,22.2,00.0,31.8,24.6,10.0,0000.0,0003.41,0005.67,0003.12
2022-01-24 15:27:00,,0823.1,4.99,0.00,22.9,22.2,00.0,31.8,24.7,10.1,0000.0,0003.34,0005.71,0002.99
2022-01-24 15:28:00,,0823.1,5.01,0.00,22.9,22.1,00.0,31.8,24.6,09.8,0000.0,0003.28,0005.56,0002.89
2022-01-24 15:29:00,,0823.1,4.99,0.00,22.9,22.1,00.0,31.8,24.7,09.7,0000.0,0003.30,0005.52,0002.94
2022-01-24 15:30:00,,0823.1,5.00,0.00,22.9,22.2,00.0,31.8,24.7,09.9,0000.0,0003.36,0006.28,0003.03
2022-01-24 15:31:00,,0823.1,5.00,0.00,22.9,22.2,00.0,31.8,24.7,10.3,0000.0,0003.39,0006.79,0003.09
2022-01-24 15:32:00,,0823.1,4.99,0.00,22.9,22.2,00.0,31.8,24.7,10.4,0000.0,0003.40,0006.69,0003.12
2022-01-24 15:33:00,,0823.1,5.00,0.00,22.9,22.2,00.0,31.9,24.7,10.2,0000.0,0003.44,0006.79,0003.17
2022-01-24 15:34:00,,0823.2,5.01,0.00,22.9,22.2,00.0,31.9,24.7,10.1,0000.0,0003.49,0006.72,0003.22
2022-01-24 15:35:00,,0823.2,4.99,0.00,22.9,22.1,00.0,31.9,24.7,09.7,0000.0,0003.60,0006.46,0003.33
2022-01-24 15:36:00,,0823.2,5.02,0.00,23.0,22.1,00.0,31.9,24.7,09.9,0000.0,0003.67,0007.15,0003.39
2022-01-24 15:37:00,,0823.2,5.00,0.00,23.0,22.1,00.0,31.9,24.7,10.1,0000.0,0003.69,0007.14,0003.41
2022-01-24 15:38:00,,0823.2,4.99,0.00,23.0,22.1,00.0,31.9,24.8,10.3,0000.0,0003.74,0007.56,0003.45
2022-01-24 15:39:00,,0823.2,5.00,0.00,23.0,22.2,00.0,31.9,24.8,10.3,0000.0,0003.77,0007.65,0003.46
2022-01-24 15:40:00,,0823.2,5.01,0.00,23.0,22.2,00.0,31.9,24.8,10.1,0000.0,0003.78,0007.86,0003.46
2022-01-24 15:41:00,,0823.1,5.00,0.00,23.0,22.2,00.0,31.9,24.8,10.1,0000.0,0003.79,0007.84,0003.48
2022-01-24 15:42:00,,0823.1,5.00,0.00,23.0,22.3,00.0,31.9,24.8,10.3,0000.0,0003.83,0007.92,0003.52
2022-01-24 15:43:00,,0823.1,4.99,0.00,23.0,22.3,00.0,31.9,24.9,10.4,0000.0,0003.88,0008.00,0003.56
2022-01-24 15:44:00,,0823.1,5.01,0.00,23.1,22.3,00.0,31.9,24.8,10.3,0000.0,0003.93,0008.03,0003.62
2022-01-24 15:45:00,,0823.1,5.00,0.00,23.1,22.3,00.0,31.9,24.8,10.0,0000.0,0003.99,0008.09,0003.68
2022-01-24 15:46:00,,0823.1,5.00,0.00,23.1,22.3,00.0,32.0,24.9,10.1,0000.0,0003.98,0008.23,0003.67
2022-01-24 15:47:00,,0823.2,4.99,0.00,23.1,22.3,00.0,32.0,24.9,09.8,0000.0,0004.02,0007.99,0003.70
2022-01-24 15:48:00,,0823.2,5.00,0.00,23.1,22.3,00.0,32.0,24.8,10.0,0000.0,0004.08,0008.04,0003.76
2022-01-24 15:49:00,,0823.2,4.99,0.00,23.1,22.3,00.0,32.0,24.8,10.0,0000.0,0004.15,0008.33,0003.84
2022-01-24 15:50:00,,0823.2,5.00,0.00,23.1,22.3,00.0,32.0,24.8,10.2,0000.0,0004.22,0008.36,0003.92
2022-01-24 15:51:00,,0823.2,5.00,0.00,23.1,22.3,00.0,32.0,24.8,10.1,0000.0,0004.25,0008.16,0003.95
2022-01-24 15:52:00,,0823.3,5.00,0.00,23.1,22.3,00.0,32.0,24.9,10.5,0000.0,0004.30,0007.99,0003.98
2022-01-24 15:53:00,,0823.2,5.00,0.00,23.1,22.3,00.0,32.0,24.9,10.5,0000.0,0004.37,0007.78,0004.03
2022-01-24 15:54:00,,0823.2,5.01,0.00,23.1,22.3,00.0,32.0,24.9,09.7,0000.0,0004.40,0007.88,0004.05
2022-01-24 15:55:00,,0823.3,5.00,0.00,23.1,22.3,00.0,32.0,24.9,09.7,0000.0,0004.42,0008.25,0004.05
2022-01-24 15:56:00,,0823.3,5.00,0.00,23.1,22.4,00.0,32.0,24.9,09.7,0000.0,0004.45,0008.43,0004.04
2022-01-24 15:57:00,,0823.3,4.99,0.00,23.1,22.4,00.0,32.0,24.9,10.1,0000.0,0004.46,0008.40,0004.03
2022-01-24 15:58:00,,0823.3,5.01,0.00,23.1,22.4,00.0,32.0,24.9,10.1,0000.0,0004.45,0008.38,0004.04
2022-01-24 15:59:00,,0823.3,5.01,0.00,23.1,22.4,00.0,32.0,24.9,10.3,0000.0,0004.42,0008.22,0004.03
